Theta_e
318 311 309 310 307 305 304 301 294 294 294 290 288 290 292 296 300 299 298 300 298 300 303 302 302 305 307 307 312 315 317 305 307 299 298 311 331 336 338 340 341 342 343 345 348 348 349 351 353 353 353 352 354 353 353 351 351 351 351 351 351 351 351 352 351 352 352 352 351 351 352 352 351 350 350 350 350 350 350 349 348 346 345 344 342 341 339 338 339 339 340 339 344 346 346 345 345
315 309 314 310 304 307 300 300 291 291 290 287 289 290 292 296 297 296 296 298 299 301 301 301 301 303 310 317 319 318 316 320 319 310 324 331 333 335 341 341 341 341 343 345 347 347 348 350 353 352 353 352 353 353 353 352 351 351 352 352 350 350 351 351 351 351 351 350 352 351 351 351 351 350 350 350 349 350 349 348 347 345 344 343 341 340 338 338 338 339 340 339 343 345 345 344 344
313 310 316 309 305 303 299 299 291 286 287 284 287 290 293 293 296 295 297 299 301 301 300 300 301 302 304 309 313 311 308 324 325 324 325 331 329 332 340 342 342 343 344 346 347 347 347 349 352 352 352 352 352 352 353 353 352 352 352 351 351 351 351 351 351 352 351 351 350 351 351 351 351 350 350 349 349 348 348 347 346 345 343 341 339 338 336 336 337 339 339 339 342 343 343 344 343
314 314 309 303 299 300 293 293 289 288 288 285 286 291 292 294 295 297 299 300 299 297 300 302 302 304 307 312 315 319 317 320 326 325 325 326 327 337 340 341 343 344 345 346 347 346 347 350 352 351 351 352 352 352 353 352 353 353 352 352 351 351 350 351 351 351 350 350 350 350 351 351 350 350 349 349 348 349 347 347 346 344 343 341 339 337 337 336 336 338 339 337 340 343 343 343 342
319 318 309 303 299 293 294 290 288 287 287 287 287 290 293 292 293 297 299 298 298 298 299 301 301 303 305 307 308 313 315 323 326 328 327 329 339 339 340 342 343 343 344 346 346 346 347 350 350 350 351 352 352 352 352 352 352 352 352 352 352 352 351 350 351 350 351 350 350 351 350 351 349 349 349 349 348 348 347 346 346 344 344 342 340 337 336 336 336 338 338 337 339 343 343 343 342
323 323 315 305 299 299 293 288 287 287 292 293 291 292 294 293 296 297 297 297 298 298 299 299 300 303 312 315 317 315 321 316 325 329 328 333 338 340 341 342 342 342 344 346 346 346 347 349 348 349 351 352 351 352 352 352 353 352 353 352 351 352 352 350 350 349 351 351 350 350 350 350 350 349 349 349 348 349 347 346 346 345 344 342 340 338 336 335 336 338 338 337 340 343 343 343 342
317 319 314 311 307 300 288 286 285 286 293 296 293 291 293 294 294 297 297 298 301 299 299 302 300 305 308 315 316 322 324 324 330 330 333 337 339 340 342 342 342 342 344 345 346 346 347 347 347 349 350 351 351 351 351 352 352 352 352 352 352 352 351 350 351 350 351 350 349 349 349 349 349 348 348 348 348 347 346 347 346 345 344 342 340 337 335 335 336 337 338 337 342 343 342 341 341
321 316 309 303 299 298 291 286 287 289 291 297 297 295 294 296 295 295 295 297 297 298 298 298 298 303 308 315 310 321 324 329 330 332 337 338 339 340 341 341 340 341 343 345 346 346 348 346 347 348 349 350 350 350 350 351 351 350 351 352 352 352 351 350 350 350 350 349 349 350 349 348 349 348 348 347 347 347 346 346 346 345 343 343 340 337 335 335 336 337 337 338 340 341 342 341 341
314 316 313 306 297 299 293 292 292 296 295 298 298 298 305 300 296 296 296 297 298 298 297 298 298 298 301 315 314 318 322 328 330 338 338 338 339 340 341 340 339 340 342 344 346 346 346 345 345 346 347 348 349 350 350 350 351 351 351 352 352 352 352 351 350 351 350 350 349 349 348 348 349 348 347 347 347 347 347 346 345 344 343 343 341 338 336 335 335 336 337 337 337 339 341 341 340
312 312 301 302 300 292 293 294 293 295 296 298 298 299 298 298 297 297 296 297 299 298 300 298 299 304 308 309 310 319 323 327 330 335 337 338 339 340 339 340 340 339 340 343 345 345 345 348 344 345 345 346 347 348 349 349 350 351 351 351 352 352 351 351 350 350 349 349 348 348 347 348 348 348 347 348 347 347 346 345 345 344 343 343 342 339 336 335 334 334 335 336 336 338 341 339 339
304 309 309 299 293 292 291 293 295 298 299 301 302 303 301 298 296 295 295 296 297 297 298 300 300 302 311 313 314 321 329 331 329 330 335 337 338 338 338 339 339 339 340 342 344 344 345 345 346 343 344 343 344 345 347 348 350 351 351 351 352 352 351 351 351 349 348 348 348 347 347 348 348 347 347 347 346 345 347 346 344 343 342 344 341 339 337 335 334 333 334 335 335 335 337 339 339
301 300 301 294 293 292 293 294 297 298 301 302 301 303 302 298 297 296 295 296 295 295 296 299 298 305 307 311 315 323 328 330 330 330 333 336 337 337 338 338 339 340 340 341 343 343 343 343 344 346 342 342 342 343 344 346 348 350 350 351 351 351 351 351 351 350 349 348 347 347 347 346 346 346 346 345 343 344 344 345 345 344 342 343 341 339 338 336 334 333 333 334 334 335 337 338 338
305 302 298 294 293 293 294 294 296 300 299 300 302 304 300 297 296 298 297 296 295 295 296 300 301 305 306 312 317 320 326 330 331 331 330 335 336 337 338 339 340 340 340 341 341 341 341 342 342 343 341 341 340 341 342 344 346 348 348 349 349 350 350 350 349 349 349 348 347 347 347 347 346 346 346 344 343 343 343 343 343 344 342 343 341 340 338 337 336 335 333 333 334 335 337 338 337
307 304 301 294 298 295 294 294 297 295 297 304 305 303 301 297 295 296 297 301 296 296 298 300 303 313 311 307 311 314 321 326 331 333 333 334 337 338 338 340 339 339 339 340 340 340 340 340 341 341 340 340 340 341 341 342 344 346 346 346 347 348 348 348 347 347 347 346 346 346 346 346 346 346 345 343 341 341 340 340 341 343 342 342 342 341 339 338 335 335 335 334 334 334 335 336 337
307 307 302 298 295 295 296 293 294 295 295 305 309 307 303 303 299 296 295 294 296 300 299 301 301 301 299 305 302 312 323 327 331 331 335 337 338 338 338 338 338 338 338 339 340 340 340 340 340 339 338 339 341 343 345 344 341 342 343 344 345 346 346 345 344 344 345 344 344 344 345 346 345 344 343 342 341 340 340 339 339 340 343 342 342 341 339 337 335 335 336 336 335 335 334 334 336
306 306 301 296 294 294 296 295 297 296 296 305 309 310 304 305 303 299 297 297 297 299 299 301 299 298 299 307 304 317 326 326 330 332 336 336 336 337 338 337 337 337 337 338 339 339 339 339 339 339 337 338 342 344 345 345 341 340 340 342 342 342 342 341 340 340 342 341 341 341 343 344 343 342 342 341 339 338 339 336 337 337 341 343 343 342 340 338 335 335 335 337 336 335 335 335 338
305 306 296 296 294 295 296 295 297 293 299 302 308 309 304 302 304 304 301 298 297 296 297 299 299 304 302 304 306 325 326 326 328 332 333 333 334 334 336 336 335 335 336 336 337 337 338 338 338 338 337 338 342 344 344 344 343 339 339 339 339 339 339 338 337 337 337 336 336 337 340 342 340 340 340 338 338 338 334 333 335 335 338 341 343 343 341 340 339 336 336 337 338 337 335 337 338
304 298 297 294 296 295 299 297 299 302 300 302 302 302 304 302 304 304 306 302 301 301 298 297 310 314 315 319 323 325 324 327 327 329 328 328 330 332 333 334 334 333 334 335 336 337 337 338 337 337 336 337 341 343 343 344 343 341 343 342 341 339 337 337 339 341 344 340 333 338 341 340 338 336 336 341 336 335 332 332 332 333 336 338 342 342 341 340 340 338 338 336 338 338 337 331 332
299 295 296 294 298 300 303 303 303 302 301 302 303 304 305 305 305 304 301 302 302 303 302 298 306 309 316 323 323 323 322 323 325 326 327 327 328 329 331 332 333 333 333 334 335 336 337 338 338 336 336 336 339 342 342 343 343 344 343 343 343 339 343 342 342 343 343 342 341 342 341 340 336 335 335 337 336 330 332 329 330 332 334 336 340 340 339 339 340 340 339 338 339 337 331 327 328
298 296 294 296 300 300 303 304 304 305 306 304 305 304 303 307 305 307 302 301 302 300 298 297 296 302 309 312 318 318 320 321 321 323 325 326 326 328 329 330 332 332 333 334 334 335 336 337 337 336 336 335 336 338 340 341 342 343 343 344 343 343 343 342 343 342 342 342 342 341 340 339 336 335 340 341 341 334 331 328 329 330 332 334 336 338 337 336 337 338 338 338 337 332 326 325 327
297 296 294 296 300 298 301 304 305 305 306 305 305 304 303 306 307 307 306 302 300 302 301 301 302 302 301 306 310 314 318 319 319 320 320 321 322 325 328 330 331 333 333 333 332 333 334 336 337 336 336 335 335 336 337 339 341 341 342 342 343 343 342 342 343 342 342 341 341 341 340 338 337 335 335 335 334 332 330 329 328 329 330 330 332 334 333 332 334 330 330 332 328 327 324 324 325
297 295 298 298 299 298 302 303 305 305 306 305 305 302 302 309 305 301 304 300 299 302 302 302 304 307 303 306 312 312 318 318 319 319 319 320 322 323 323 324 326 327 328 331 332 332 334 336 336 336 335 335 334 335 336 338 339 339 340 340 341 342 342 342 342 342 341 341 341 340 339 338 336 333 333 333 333 331 330 329 329 329 327 330 331 333 332 331 330 329 328 328 327 327 326 324 323
289 292 295 297 299 297 301 304 304 304 303 303 302 305 304 303 302 302 301 300 304 308 307 307 306 306 311 310 311 312 315 317 316 318 317 319 319 320 321 324 326 326 328 331 332 332 334 335 336 336 335 334 333 335 334 336 337 338 339 339 339 339 340 340 340 341 341 341 341 340 338 337 335 332 330 331 331 330 330 329 329 328 328 328 330 331 330 331 330 329 328 328 328 327 325 322 322
292 288 292 294 298 297 300 299 298 302 303 302 305 306 303 302 299 304 301 303 306 308 309 310 310 308 309 312 311 311 315 319 320 320 319 321 321 322 323 324 325 324 325 328 330 332 332 334 336 336 335 335 333 334 334 334 335 336 336 336 338 337 338 338 339 340 340 339 340 339 337 337 334 331 329 329 330 330 330 330 329 328 328 328 328 329 329 329 330 329 328 326 327 327 326 325 323
290 289 290 290 294 296 297 299 299 298 298 303 304 301 302 303 303 303 303 304 306 307 308 310 310 308 305 305 308 309 310 315 318 319 316 317 318 321 320 322 323 324 325 324 328 330 332 334 336 336 336 335 335 336 333 334 334 334 334 334 335 334 337 338 338 338 339 338 338 338 337 336 333 331 329 329 329 330 330 330 329 329 329 329 328 328 329 329 329 329 328 328 327 326 326 325 323
291 291 291 291 290 292 295 295 296 296 295 297 300 300 302 303 305 301 304 305 307 308 307 309 307 306 304 304 304 305 307 308 311 314 316 315 315 317 321 321 322 323 326 326 326 328 331 333 335 336 336 336 336 337 335 334 334 333 333 334 334 332 335 337 338 337 338 338 336 336 335 335 333 331 329 329 330 330 330 330 330 330 330 330 329 328 328 328 329 328 328 327 327 326 326 326 323
291 291 292 291 291 291 293 291 292 293 292 292 295 297 299 301 300 296 303 305 306 306 306 307 306 306 306 305 304 303 303 303 307 312 311 312 313 314 316 319 321 325 326 326 327 328 328 330 333 336 336 335 337 337 336 335 335 333 333 334 334 333 334 334 335 336 336 336 336 335 334 333 332 331 330 330 331 331 331 331 331 331 330 330 330 330 329 328 328 329 329 328 327 327 327 327 324
290 289 289 289 290 290 291 290 290 292 291 291 291 291 293 295 297 297 297 302 304 303 304 306 306 306 307 306 306 303 302 303 304 308 311 311 313 313 314 318 320 322 324 326 329 329 328 330 332 334 336 336 336 336 336 336 336 334 332 333 333 333 332 332 333 333 333 335 335 334 334 334 332 331 331 330 331 331 331 331 331 330 330 330 330 330 329 328 327 328 329 328 327 327 327 326 324
290 289 285 286 287 288 289 288 289 291 290 292 292 289 287 289 289 296 298 301 302 302 303 304 305 306 307 308 307 307 303 301 302 304 309 314 315 313 317 318 323 321 324 327 328 327 328 329 330 332 334 335 336 336 335 336 336 336 334 333 333 333 332 332 332 332 332 333 334 334 334 334 332 331 331 331 331 332 332 331 330 331 331 331 330 330 329 328 326 326 327 327 326 326 325 325 324
290 288 285 286 285 285 289 289 289 288 290 292 292 281 284 287 290 294 298 299 300 300 300 302 303 304 306 307 307 308 308 303 301 302 304 308 311 311 317 317 314 318 319 317 322 327 329 331 331 331 331 333 334 336 335 334 335 336 335 335 334 334 333 333 332 333 332 332 333 334 334 335 334 333 332 332 332 332 332 332 331 331 331 331 330 330 329 328 326 325 326 325 324 324 324 325 323
284 285 286 280 281 281 287 289 287 286 290 292 292 282 284 286 289 293 296 299 298 297 299 300 302 303 304 305 306 306 306 306 303 303 305 306 307 311 313 306 308 308 311 317 322 323 325 329 330 330 328 329 330 331 332 334 334 335 334 335 336 336 335 335 334 334 334 334 334 334 335 335 334 334 334 333 332 332 332 332 332 332 332 331 330 330 329 328 327 326 325 325 325 324 324 324 323
283 282 278 279 280 282 284 289 288 286 288 291 289 282 284 286 286 291 295 296 297 296 297 299 300 301 303 304 304 304 305 306 305 305 306 306 308 308 304 303 304 304 307 309 311 318 323 325 326 327 325 326 326 328 328 329 331 332 333 332 334 334 335 336 336 336 336 336 335 335 335 335 335 335 335 335 333 333 333 332 333 333 332 331 331 330 329 328 328 327 326 326 324 324 323 323 322
279 280 278 277 279 280 282 287 288 289 288 288 288 281 282 282 287 289 293 295 295 295 295 296 297 299 301 302 302 302 303 304 304 304 307 307 306 304 304 304 305 304 304 304 306 309 314 314 319 322 323 324 323 323 325 326 328 329 329 330 330 332 334 336 336 337 337 337 337 337 337 336 336 336 336 336 335 334 333 333 333 333 332 332 331 330 329 330 329 328 327 326 326 325 323 323 323
277 279 278 279 279 278 278 283 286 288 288 284 287 284 283 285 288 288 293 293 293 293 293 295 296 297 299 300 300 299 301 301 303 304 306 305 304 305 305 306 305 305 304 304 304 305 306 307 311 316 318 319 320 320 320 322 323 327 328 330 328 328 331 333 334 334 335 336 337 337 338 337 336 337 337 337 336 335 335 334 333 333 333 332 332 331 330 330 330 329 327 326 327 327 325 325 325
276 277 276 278 279 280 279 279 282 285 285 284 285 283 284 283 283 285 290 292 292 292 292 293 293 295 296 298 298 298 298 299 301 304 306 305 306 306 305 304 303 304 304 303 302 302 303 303 304 305 310 313 316 318 319 318 319 320 320 323 326 328 328 326 328 328 331 333 334 335 336 337 336 338 338 337 336 336 335 335 333 332 332 332 332 331 331 330 329 329 329 328 328 329 328 328 328
276 277 277 278 277 278 279 283 285 285 282 282 282 282 283 284 285 286 288 289 289 288 288 291 292 292 293 294 295 296 296 297 299 303 305 305 305 305 304 304 301 300 300 301 301 300 301 301 302 302 302 303 308 312 312 315 317 316 318 318 320 321 324 326 325 326 327 328 330 332 333 335 336 336 337 337 337 336 335 335 335 334 333 332 332 330 330 330 329 328 329 330 329 328 328 329 328
277 278 277 276 277 278 280 280 283 285 282 281 283 283 283 283 285 287 288 287 286 287 287 287 288 290 291 293 294 295 295 296 299 301 304 303 303 301 302 301 298 297 297 297 297 297 297 298 299 298 298 300 303 306 309 310 313 313 313 315 317 318 320 320 323 324 324 324 325 325 327 331 334 335 335 336 336 334 335 336 335 334 334 334 333 332 332 331 331 330 330 329 329 328 327 327 328
279 277 276 276 277 275 279 281 283 284 282 277 279 281 282 283 283 285 286 285 286 286 285 286 287 288 291 292 293 294 295 297 299 299 299 298 298 298 298 298 298 296 296 296 296 296 296 297 297 297 297 298 299 300 302 305 307 311 313 315 316 318 319 319 321 323 324 324 323 324 325 326 329 332 332 334 335 336 335 336 336 336 335 335 334 334 334 329 329 329 329 328 328 328 328 328 327
279 278 277 275 276 277 280 280 282 284 282 279 279 278 279 280 282 284 284 285 285 287 286 287 287 287 289 290 291 293 293 295 297 296 295 295 296 296 296 297 296 296 296 296 296 297 297 297 297 297 297 297 297 299 299 299 300 301 305 308 312 314 314 316 318 319 319 323 325 326 326 326 326 327 329 330 333 334 335 335 336 337 336 335 334 333 333 331 331 330 330 330 329 328 329 329 327
278 277 276 275 277 277 273 276 280 281 281 279 279 278 278 279 281 283 285 285 285 287 288 288 288 288 287 289 290 291 291 293 294 294 293 294 294 295 295 295 296 296 296 296 297 297 297 297 296 297 297 298 298 299 300 298 298 299 299 301 303 308 311 308 304 306 311 317 320 323 325 325 325 325 325 325 329 332 334 334 334 334 335 336 335 334 333 332 332 331 331 330 330 327 326 327 328
279 279 278 277 277 273 278 276 279 276 279 278 279 278 279 277 280 281 283 285 285 286 286 287 288 288 289 289 290 291 291 292 292 292 293 293 293 293 294 294 295 295 295 296 296 297 298 297 297 297 297 297 298 299 298 299 298 297 298 298 298 298 299 299 301 303 304 308 312 316 322 321 324 324 324 324 324 328 331 332 332 333 333 333 334 335 334 334 334 333 332 331 330 328 326 327 326
277 278 280 280 278 275 275 277 278 273 274 279 280 271 269 272 275 278 282 279 282 284 283 284 286 287 288 288 289 291 293 292 293 292 292 293 293 293 293 293 294 294 294 295 296 296 296 296 297 297 297 297 297 297 298 299 297 297 296 296 296 296 296 297 299 300 302 303 305 312 315 316 320 322 324 324 323 323 327 330 331 331 331 332 332 333 334 333 333 333 333 333 331 331 329 327 325
274 274 279 280 278 275 275 275 275 267 269 276 280 274 268 271 271 276 275 275 279 282 281 284 285 286 287 288 289 290 290 290 291 292 292 292 292 292 293 293 293 293 294 295 295 295 296 296 296 296 296 297 298 297 298 299 297 297 295 295 296 296 297 298 298 300 302 303 304 304 307 310 315 318 321 322 323 323 324 326 328 330 331 331 330 331 331 332 332 331 332 332 332 331 330 327 326
273 276 278 279 278 276 274 276 276 271 276 276 275 276 268 268 273 276 275 275 276 278 280 282 284 285 285 287 288 288 288 290 290 291 291 291 292 292 292 293 293 294 294 294 295 295 295 295 295 295 296 296 296 297 297 298 297 297 296 295 296 295 295 296 297 298 299 300 300 300 302 303 306 310 315 319 322 323 322 323 324 326 328 329 328 329 331 331 330 330 329 331 332 332 331 329 327
274 277 278 278 278 278 276 276 275 273 272 267 272 273 270 264 271 276 277 275 277 278 280 281 283 285 285 285 286 288 289 289 290 290 290 291 291 291 292 292 293 294 294 294 294 294 295 295 295 295 295 295 296 296 296 296 298 298 297 297 295 296 296 296 297 297 297 298 298 299 300 300 301 303 306 311 315 319 321 322 323 324 324 326 325 327 328 329 329 329 328 328 329 330 331 330 329
277 278 278 278 277 276 275 274 274 272 269 266 270 272 266 268 267 272 276 274 275 278 280 281 282 284 284 285 286 288 289 289 289 290 290 291 291 291 292 292 292 292 293 294 294 294 294 294 294 294 294 294 295 295 295 295 296 297 296 297 296 296 297 296 296 296 296 296 297 297 298 299 299 301 302 303 307 311 316 319 321 322 323 324 322 324 324 326 327 328 329 329 330 329 330 329 328
279 278 276 274 273 271 267 265 269 268 268 270 274 272 271 265 268 274 275 274 278 280 279 279 281 283 283 286 287 288 288 289 289 289 289 290 290 291 291 291 291 292 292 292 293 293 293 293 293 293 293 294 294 294 294 294 295 295 295 296 296 296 297 297 296 297 297 297 296 297 297 298 299 299 300 301 303 306 309 313 316 319 321 322 322 321 322 323 325 326 327 327 327 328 328 328 326
280 273 269 271 266 267 261 260 267 268 265 271 275 269 271 266 264 273 279 278 280 281 280 280 281 282 284 284 286 287 288 288 288 288 288 287 287 287 289 289 290 290 291 291 291 292 292 292 292 292 293 293 293 293 293 293 294 294 295 295 295 296 297 297 297 297 297 296 296 297 298 298 298 299 299 299 301 302 304 307 310 313 316 318 320 322 323 323 323 323 323 324 325 326 328 327 328
277 272 274 271 258 261 262 265 263 265 266 270 266 270 267 269 274 275 278 279 280 281 281 281 282 282 283 284 285 286 286 286 286 286 286 286 286 286 286 287 288 289 290 290 291 291 292 292 291 291 291 292 292 293 292 292 293 293 294 294 295 296 296 297 297 297 298 298 298 297 297 297 298 298 299 299 300 300 302 304 306 309 311 315 317 319 320 321 322 322 322 322 323 323 325 326 326
275 275 271 266 260 259 260 260 257 261 266 266 263 271 267 269 275 279 278 280 281 282 281 283 284 284 284 284 284 284 284 284 285 285 285 285 285 285 286 286 287 288 289 290 291 291 291 291 291 291 291 291 292 292 292 292 292 292 293 293 294 295 295 296 296 296 297 298 298 298 298 298 298 298 299 299 300 301 301 302 304 307 309 312 313 316 318 319 320 321 322 322 323 324 324 324 324
276 277 275 271 267 260 259 259 261 262 266 267 268 266 259 268 270 277 281 283 283 281 282 283 284 285 284 283 283 283 283 282 283 284 285 285 285 285 285 286 286 286 287 289 289 290 290 290 290 290 291 291 291 291 291 291 291 291 292 293 293 293 294 294 295 296 296 296 297 298 298 299 299 299 299 300 301 300 300 301 301 303 305 308 311 312 315 316 317 318 319 320 321 323 323 324 325
274 270 271 267 269 269 266 264 260 260 259 259 263 264 267 272 277 277 277 279 280 281 282 283 282 282 282 281 282 282 282 283 283 283 284 284 285 285 285 285 285 285 286 287 288 289 289 289 289 290 290 290 291 291 290 290 290 291 291 291 291 292 293 293 293 294 295 296 296 297 298 298 299 299 299 300 300 300 300 301 301 301 303 305 308 310 312 313 315 316 317 317 318 320 321 321 322
272 275 270 274 278 271 260 261 258 259 259 257 264 268 271 274 277 276 277 277 278 280 281 281 281 281 281 281 281 281 282 282 282 283 283 283 283 284 285 285 284 284 284 286 287 288 289 289 289 289 289 289 290 290 290 290 290 290 290 290 290 290 291 291 292 293 293 294 295 296 297 297 298 298 299 300 300 300 300 300 300 301 302 303 304 307 309 311 313 314 315 315 316 318 318 319 320
272 268 275 275 272 270 267 260 258 258 261 257 266 265 269 272 265 276 276 277 277 278 279 280 280 280 280 280 280 280 281 281 282 282 282 283 283 283 283 284 284 285 285 285 286 287 288 288 288 289 289 288 288 289 289 289 289 289 289 289 289 290 290 290 291 291 291 291 292 293 294 294 295 297 298 298 298 298 299 299 300 300 301 302 302 304 306 309 311 313 314 315 316 316 316 318 318
277 273 276 273 265 265 261 261 262 255 256 253 263 269 270 273 271 274 274 275 276 276 278 278 278 279 279 279 279 279 280 280 280 280 280 280 281 281 281 281 282 284 285 285 286 286 287 287 288 288 288 288 288 289 288 288 289 289 289 288 288 289 290 290 291 290 290 290 290 291 291 292 293 294 295 296 297 298 298 299 299 299 300 301 302 303 304 306 309 311 312 314 315 316 316 316 317
275 278 274 274 270 268 268 268 261 265 261 257 254 262 262 273 274 274 275 277 277 276 277 278 279 279 279 279 279 279 279 280 279 279 280 280 280 280 280 280 281 283 284 286 286 286 286 286 287 287 287 287 287 287 288 287 288 287 287 288 288 289 289 290 290 289 289 288 289 289 289 289 290 292 294 295 296 297 298 298 299 299 299 299 300 301 302 304 306 309 311 312 314 315 315 315 316
271 271 263 270 268 269 266 265 266 263 254 263 257 259 261 271 276 276 277 278 278 278 278 279 279 279 279 279 279 279 279 279 279 280 280 280 279 279 280 279 280 281 283 284 285 286 286 286 286 286 286 286 286 286 286 286 287 286 286 286 287 287 288 289 288 288 288 288 288 288 288 288 289 290 292 292 294 295 296 297 298 298 298 299 299 300 301 301 302 304 308 311 313 314 314 315 315
274 273 271 273 271 265 262 263 266 257 262 255 259 261 264 271 276 279 279 280 279 279 279 279 278 278 278 278 278 279 279 279 279 279 279 279 279 279 279 279 280 282 283 283 284 285 285 285 286 285 286 285 285 285 285 285 285 285 285 285 286 287 287 287 286 287 287 287 287 287 287 288 287 288 289 290 290 292 293 295 296 297 297 298 298 299 300 301 301 301 303 307 310 312 314 315 315
Wind_Speed
11 11 11 10 2 1 1 2 3 3 1 5 2 3 5 1 2 4 5 7 5 2 2 3 5 4 2 2 10 6 0 4 2 5 3 2 2 11 8 12 13 13 11 9 9 11 11 13 15 16 17 18 18 17 17 17 16 16 15 14 15 14 14 14 14 15 16 17 16 16 15 15 15 15 14 14 14 14 14 14 13 12 12 11 11 10 9 8 8 9 10 9 10 11 12 11 12
8 10 10 8 3 0 2 2 1 0 1 2 8 1 4 4 2 2 3 5 4 1 2 0 4 6 10 11 9 4 4 1 2 1 1 1 7 6 8 13 15 15 11 9 9 9 9 10 15 15 16 18 17 18 17 16 17 16 15 14 14 13 13 13 14 15 16 17 16 16 15 15 14 14 14 14 14 14 14 14 13 13 12 11 11 10 9 8 7 9 10 9 11 10 11 10 10
7 9 12 9 2 3 0 2 3 1 4 8 6 5 3 3 7 3 4 5 7 6 7 6 2 2 2 2 3 2 1 1 1 2 3 4 11 4 9 13 13 14 12 9 9 9 8 9 14 15 15 17 17 18 17 16 16 17 16 15 14 13 12 13 14 14 16 16 16 15 15 15 15 14 14 13 12 13 13 14 14 13 12 11 11 10 8 7 6 9 10 9 10 10 10 9 9
5 4 6 4 4 3 1 1 2 5 5 5 4 5 4 5 8 3 5 5 5 4 2 2 1 1 3 5 2 3 3 0 0 4 4 4 3 7 9 12 11 10 10 9 9 8 8 11 14 14 15 17 17 18 17 16 16 16 16 15 14 13 13 12 13 14 16 15 15 15 15 15 15 15 13 14 14 13 13 14 13 13 12 11 10 9 8 7 6 8 10 8 9 9 9 8 8
8 7 3 3 1 3 1 2 2 4 7 4 1 4 3 4 7 6 2 3 6 3 3 2 1 3 2 4 0 2 0 1 1 1 3 2 8 9 9 11 11 11 10 9 9 8 8 15 14 13 14 16 17 17 17 17 16 16 15 15 13 13 13 12 12 14 14 14 14 15 15 14 13 13 14 12 14 13 13 14 13 13 12 11 10 9 8 7 6 8 10 8 9 9 9 7 7
4 5 4 2 1 1 1 1 3 4 3 4 1 1 0 3 3 3 4 4 6 2 2 1 1 2 3 2 1 2 1 1 2 0 3 6 13 12 12 10 11 10 9 9 9 7 8 15 15 14 13 15 17 17 16 17 16 16 15 14 13 12 11 12 11 13 13 14 15 15 15 14 14 14 14 12 14 13 13 14 14 13 12 11 10 9 8 7 6 8 9 9 9 9 9 7 7
3 4 6 5 3 2 3 2 5 5 7 3 3 2 4 6 4 2 2 2 1 3 2 1 1 3 5 1 1 1 2 5 0 2 5 10 14 13 13 10 11 10 10 9 8 8 10 14 15 15 14 15 16 16 16 16 16 16 15 13 12 12 11 12 11 12 13 14 15 13 14 14 13 12 11 13 13 13 13 13 13 13 12 11 10 9 8 7 6 8 9 8 8 9 8 7 6
1 4 2 4 1 3 3 4 5 4 5 4 2 5 4 6 5 4 5 1 1 2 4 1 3 5 1 1 1 4 6 2 3 6 11 13 14 13 12 11 11 11 10 9 8 7 11 14 14 15 15 15 16 15 15 15 16 15 13 12 12 11 12 13 12 13 12 13 15 16 11 10 13 13 12 12 12 13 13 12 12 12 11 11 10 9 8 7 6 6 8 8 7 7 8 7 6
5 5 0 3 1 1 3 6 5 4 6 7 8 4 6 5 7 3 2 1 1 1 2 4 4 2 1 4 2 3 3 8 4 12 12 13 15 14 11 12 12 10 10 9 8 7 8 12 13 14 14 15 14 14 13 13 12 13 13 12 12 11 12 13 13 12 12 12 14 14 14 11 12 13 13 13 12 11 12 11 11 12 11 10 11 10 8 7 6 5 7 8 7 6 7 7 6
2 1 1 2 3 10 5 8 5 5 2 1 5 8 6 5 5 1 1 1 1 0 0 2 1 5 2 5 2 4 4 9 4 8 9 11 13 12 13 13 13 12 10 9 8 7 7 12 12 13 13 14 14 13 12 12 12 12 12 12 12 12 13 13 13 13 13 13 12 12 12 12 13 12 11 13 12 11 12 11 10 11 10 10 10 10 8 8 7 6 5 6 7 6 6 6 5
1 3 1 2 5 11 14 10 8 9 11 4 9 5 7 6 4 4 1 3 2 1 3 3 4 2 2 0 1 4 5 2 7 7 7 10 10 12 11 11 11 12 10 11 9 7 7 7 13 12 12 13 13 13 12 12 12 12 12 12 12 12 12 13 12 13 14 14 14 11 10 11 11 10 9 8 10 10 8 9 10 10 9 11 10 10 9 8 7 7 6 6 6 5 4 5 5
2 2 1 4 8 10 8 9 11 9 12 9 10 4 4 9 6 5 2 1 4 3 2 1 1 5 2 0 1 2 6 4 2 4 6 8 9 10 11 9 10 10 10 9 10 8 7 7 7 11 11 12 12 12 12 13 13 13 12 12 12 12 13 13 12 12 14 15 12 10 11 12 10 10 8 7 8 8 8 9 8 8 9 10 10 10 9 8 7 7 7 6 6 6 5 4 4
4 3 2 1 4 4 3 7 8 5 9 11 8 3 5 8 5 7 5 1 1 4 3 0 1 3 1 1 2 3 2 1 2 4 4 8 8 8 9 10 11 11 10 8 9 10 8 7 6 6 6 10 10 10 11 12 13 13 12 12 12 12 13 13 13 13 14 14 13 13 13 13 13 12 10 9 8 9 9 8 7 8 10 10 10 9 9 9 8 7 7 7 6 6 5 4 3
6 6 6 5 4 5 7 6 2 6 11 7 0 3 5 3 5 5 0 2 5 1 1 0 1 4 2 1 1 1 2 3 3 2 4 7 7 9 10 9 11 11 11 11 9 9 9 7 7 6 6 6 5 8 10 11 11 12 12 11 12 12 12 12 13 14 14 14 13 13 14 13 12 11 11 10 9 9 9 8 8 8 10 10 10 10 9 9 7 7 8 7 7 7 6 4 4
6 2 3 2 3 5 7 8 9 9 13 4 3 6 8 5 6 6 2 1 3 2 4 0 2 0 3 5 4 5 4 1 3 3 7 8 8 9 9 9 10 10 10 11 10 8 8 8 7 7 6 6 6 6 6 8 11 11 11 11 11 12 12 12 12 13 14 14 14 13 14 14 12 11 11 11 10 10 9 9 8 7 9 10 10 10 9 9 7 7 9 8 7 7 6 5 4
1 4 3 5 9 8 5 10 5 8 9 1 5 3 5 13 4 5 4 1 4 2 3 0 2 0 1 6 3 8 6 1 3 5 10 10 8 7 9 9 8 9 9 10 10 9 8 8 8 7 6 7 7 6 8 8 9 11 11 11 11 11 11 11 12 12 13 13 13 13 13 11 11 9 12 10 11 10 10 7 7 5 8 9 10 10 9 8 7 8 9 9 8 7 6 6 5
1 1 4 5 10 11 5 7 8 11 2 5 1 2 3 6 5 4 3 1 3 4 4 1 1 2 1 2 4 8 4 3 6 9 10 8 7 6 6 7 7 7 6 9 10 9 9 9 8 8 7 8 8 7 6 7 9 11 9 11 12 11 11 11 11 12 11 11 11 11 11 8 6 6 8 6 9 7 9 9 8 6 8 9 10 9 8 7 7 7 9 10 9 8 7 7 6
3 4 5 10 9 12 9 13 11 5 5 10 2 2 3 9 5 5 12 3 4 4 5 3 5 5 2 2 3 3 2 6 7 11 8 7 6 6 6 6 7 8 7 7 8 10 9 8 9 8 8 9 9 7 5 6 7 8 7 7 7 8 9 9 9 8 9 6 9 8 6 5 5 5 5 6 6 6 7 9 8 7 7 9 10 9 8 7 7 8 8 10 11 8 8 5 4
5 2 4 12 8 9 8 12 11 6 9 2 3 1 1 6 1 4 5 11 7 6 5 3 3 5 7 6 6 5 2 2 5 9 10 11 7 9 7 6 7 8 8 7 7 9 9 9 8 8 8 8 9 8 6 6 8 6 7 6 6 7 8 8 7 8 6 6 6 6 5 4 5 4 5 5 5 7 7 9 8 8 7 9 9 10 9 8 8 7 8 8 9 9 6 4 3
3 4 9 10 0 2 7 6 11 10 2 5 3 2 2 2 2 1 4 7 10 5 4 5 5 2 2 3 4 5 3 1 2 5 7 9 9 9 8 7 6 8 8 7 8 7 8 9 10 8 8 8 7 6 5 6 6 6 6 6 5 6 6 6 6 6 6 6 6 5 5 5 5 5 6 9 7 5 6 8 9 8 8 8 9 7 8 8 8 8 7 7 7 4 5 4 4
2 3 7 3 4 3 2 5 6 9 9 4 3 3 1 3 2 2 2 3 11 6 3 2 4 5 3 2 2 2 2 1 0 1 3 4 4 5 8 8 8 7 7 6 6 7 7 7 8 8 9 8 8 6 5 6 5 5 5 5 6 5 6 6 5 6 6 6 6 5 6 5 5 5 5 5 6 6 5 5 5 5 5 4 7 4 5 5 5 4 4 5 5 5 4 4 4
0 7 2 2 1 7 5 3 4 6 7 9 5 6 5 0 2 4 4 9 10 4 4 4 4 5 1 2 3 1 0 1 1 1 3 4 5 5 4 3 2 3 4 6 8 7 9 9 9 7 7 8 9 8 8 8 7 7 6 5 6 5 5 6 5 6 7 7 6 6 6 6 6 6 5 6 6 6 6 6 6 6 5 6 5 5 4 4 4 4 4 5 4 4 4 4 4
5 3 3 4 5 3 1 3 6 7 4 7 7 7 4 6 3 5 9 13 4 6 2 6 4 5 1 1 1 2 2 3 3 4 4 4 4 3 4 5 7 6 6 7 7 7 8 8 9 9 8 7 8 7 7 7 7 8 7 7 7 6 5 5 5 6 7 7 7 7 7 6 6 6 6 6 6 5 6 6 7 6 6 6 5 5 5 4 4 4 4 5 5 5 4 3 4
4 6 1 6 7 10 7 8 5 5 9 11 8 4 10 7 13 4 10 9 6 11 9 1 3 5 2 0 3 4 5 6 7 6 5 6 5 7 6 6 5 4 5 5 6 6 7 9 9 10 9 9 8 8 8 8 7 8 8 8 8 8 7 7 6 4 6 7 6 6 6 5 6 5 5 5 6 5 6 5 5 5 5 5 5 5 6 5 5 4 4 3 4 4 5 5 5
7 8 4 4 5 8 7 9 11 8 7 7 7 9 12 10 9 3 16 12 8 11 9 2 2 2 3 3 5 4 4 5 5 6 4 5 4 4 3 3 4 5 6 6 7 6 7 8 8 10 9 10 9 8 8 7 8 8 8 8 8 8 8 8 8 6 5 6 7 8 8 7 6 6 6 6 5 6 6 5 6 6 6 6 5 6 6 6 5 5 5 5 5 5 4 4 4
6 11 4 4 5 3 7 8 11 10 6 5 9 13 10 11 7 14 16 10 12 7 11 3 1 1 1 3 4 4 4 5 4 5 6 3 3 4 6 4 3 5 7 7 7 7 7 7 9 10 10 10 10 9 9 8 8 8 8 8 9 8 8 8 9 7 7 7 6 7 8 8 8 7 7 6 6 7 6 6 6 7 7 6 6 7 6 6 6 5 5 5 5 5 5 6 4
1 6 10 8 6 5 4 6 7 5 4 5 12 11 10 5 7 13 9 14 8 10 11 8 2 6 3 4 5 3 3 4 6 4 3 3 3 3 3 1 4 6 5 6 7 7 7 8 9 10 10 9 8 9 8 9 9 9 9 8 8 9 8 7 7 8 8 8 8 8 8 8 8 7 7 7 7 7 7 7 8 6 7 6 6 7 5 7 6 7 7 7 6 6 6 5 5
2 3 2 5 6 6 4 3 5 0 4 4 4 5 4 6 7 16 5 6 9 12 12 14 10 6 7 6 7 6 4 4 4 1 4 4 5 4 4 3 4 5 6 7 7 6 8 10 10 10 10 9 9 8 8 8 9 9 8 8 8 8 7 7 7 7 8 8 8 8 8 8 8 8 8 8 8 8 8 8 7 6 7 5 6 6 6 6 6 6 6 6 5 5 5 5 5
2 0 4 4 3 5 5 7 4 2 3 3 4 4 10 7 13 7 3 5 11 11 13 14 15 15 11 8 7 7 8 5 1 2 6 6 5 3 6 6 6 5 6 7 8 6 7 8 9 9 9 9 9 9 8 8 7 7 8 8 7 7 8 7 7 8 8 8 8 9 9 9 9 9 9 9 9 8 8 7 6 7 7 6 6 7 7 6 5 5 6 5 5 5 5 5 4
1 1 2 5 5 8 11 3 2 4 3 5 4 9 14 18 13 6 8 6 8 9 12 13 14 12 10 9 8 9 7 7 7 5 6 6 5 4 5 4 3 3 4 2 3 7 7 5 6 6 7 9 10 8 7 7 7 7 6 7 7 7 7 8 8 8 8 8 8 9 9 9 9 9 8 8 7 7 7 7 8 7 6 6 6 6 7 6 6 6 6 5 6 6 7 6 5
1 4 1 5 3 8 5 7 5 5 4 6 4 13 15 5 8 9 9 9 9 12 14 13 12 12 13 13 12 10 11 9 10 8 8 8 6 5 5 3 3 4 3 1 3 4 4 6 4 5 6 5 6 5 8 7 6 7 6 6 6 6 6 8 8 8 8 8 8 8 9 8 9 9 8 8 7 7 7 7 7 7 7 6 7 7 7 6 6 7 6 7 6 6 6 7 7
1 1 6 3 7 4 0 5 11 14 1 8 5 13 19 7 5 7 11 13 12 15 13 13 13 12 13 13 14 14 14 13 11 9 8 8 8 6 6 5 3 3 5 5 3 2 2 1 1 4 4 5 4 3 2 2 4 5 5 6 6 8 6 7 7 8 8 7 8 8 8 8 8 9 8 7 7 7 8 8 8 6 7 7 7 7 7 7 7 7 6 7 6 7 7 7 6
2 6 3 3 4 8 4 6 7 13 5 7 17 10 6 2 7 8 10 10 13 15 15 15 14 15 14 14 13 13 13 14 11 8 6 5 7 7 7 7 5 4 4 4 5 4 3 3 3 1 1 1 3 1 1 3 3 2 3 4 4 6 8 8 7 6 6 7 7 8 8 9 9 9 9 8 8 8 8 8 6 7 6 7 7 7 8 7 7 7 7 7 7 7 7 7 6
6 2 7 4 7 3 6 5 3 6 8 7 12 14 8 2 1 1 1 9 12 15 15 15 15 14 15 15 14 13 12 12 13 9 6 5 5 6 6 8 7 5 4 4 4 5 4 4 3 4 3 3 3 1 3 2 2 5 5 5 4 5 6 6 6 6 7 7 7 7 8 8 8 9 9 9 9 9 8 8 6 6 7 7 7 7 8 7 7 8 8 7 7 7 6 7 8
9 7 8 8 5 5 7 1 3 2 5 12 11 15 16 5 4 4 3 2 5 10 10 10 12 12 11 11 12 11 10 10 11 10 7 7 6 3 3 2 3 3 4 4 4 4 4 4 3 3 3 4 4 4 4 1 0 0 2 3 5 5 4 4 4 4 5 5 6 8 8 8 8 9 9 9 9 9 8 7 6 6 6 7 7 8 8 8 8 7 9 8 7 8 8 8 8
6 9 9 7 8 8 9 8 8 3 5 8 11 13 14 10 9 9 7 0 1 3 2 4 8 7 5 5 7 8 7 9 5 7 10 6 5 5 4 5 5 6 6 5 6 6 5 4 4 4 6 5 3 3 3 4 5 5 4 3 2 2 3 4 2 4 4 5 5 6 7 7 8 9 10 9 9 9 8 7 7 6 7 6 8 8 8 8 9 8 9 9 8 7 6 6 6
0 1 4 7 8 8 3 3 6 1 4 11 12 14 12 8 14 13 9 5 4 3 4 4 3 4 5 7 8 8 8 9 7 8 6 6 3 3 4 6 6 8 7 7 8 8 7 5 5 6 5 6 6 5 4 3 3 4 3 2 4 3 3 2 2 2 3 4 4 4 4 6 7 8 9 8 9 8 7 7 7 7 7 8 8 10 10 9 8 8 8 7 10 9 8 6 5
3 3 4 7 3 6 4 4 4 1 4 4 2 8 12 10 6 9 9 5 9 7 5 5 5 4 3 3 6 8 7 2 5 5 5 5 5 5 5 6 5 8 5 7 7 5 5 7 7 5 5 6 7 5 4 2 2 2 3 5 4 4 3 3 5 4 4 3 3 4 5 5 6 7 7 7 8 8 8 7 8 8 8 8 9 10 9 8 7 7 6 7 7 9 8 7 6
6 6 7 6 9 5 7 5 6 3 2 9 5 5 7 6 6 7 6 7 4 4 4 5 5 5 3 3 3 3 2 4 6 6 5 6 7 6 6 6 7 7 5 6 4 6 7 7 6 5 5 6 5 5 6 3 2 3 2 3 3 4 2 1 2 2 2 4 4 4 5 5 6 6 6 7 7 7 8 9 9 9 9 9 9 9 9 9 8 9 9 9 8 6 7 5 8
7 7 7 10 5 3 5 5 1 1 3 3 0 4 6 4 5 9 9 6 4 6 8 9 6 7 5 4 4 3 4 4 7 6 6 6 6 6 7 7 6 6 6 7 6 6 5 6 5 5 5 4 5 5 4 2 2 2 2 3 4 2 4 5 4 3 2 1 4 4 4 4 4 5 5 5 6 7 8 9 8 8 9 9 9 9 9 10 9 8 9 10 9 7 6 7 8
9 10 8 10 8 5 9 5 3 4 3 0 2 6 8 4 6 6 6 3 5 6 6 7 8 5 5 4 4 4 6 5 6 7 6 6 7 7 7 6 6 7 6 6 6 6 4 5 5 4 5 5 4 5 6 4 5 5 5 4 3 3 2 4 5 5 4 3 2 2 4 4 4 5 5 5 5 7 7 8 8 8 8 8 9 10 10 10 10 9 11 10 9 9 8 6 6
8 9 14 14 7 6 5 4 3 3 5 3 3 3 7 6 7 9 7 3 5 5 4 8 11 10 5 6 7 5 2 4 9 9 8 7 8 7 7 7 8 6 7 5 4 5 5 6 6 6 6 6 6 5 5 5 6 5 6 5 5 4 4 5 3 3 6 6 5 5 5 3 4 5 5 5 5 5 6 7 7 8 8 7 8 8 9 8 10 11 10 9 10 11 10 7 6
6 7 11 9 7 6 5 4 4 4 6 4 2 10 8 3 4 7 4 4 11 7 5 12 8 7 9 9 6 6 6 6 5 6 7 9 7 9 7 7 6 8 5 3 5 5 6 6 6 6 6 6 6 5 5 5 5 5 4 3 1 1 2 3 1 3 4 5 5 5 5 6 4 4 5 4 5 4 5 6 7 7 8 8 7 8 9 10 10 10 8 9 9 9 9 10 10
7 3 5 7 6 6 6 7 9 7 1 2 4 3 5 6 6 6 2 2 5 7 10 10 9 9 10 10 8 7 6 7 9 8 7 7 7 9 10 7 6 6 4 5 5 5 6 6 6 6 6 6 6 6 7 6 5 4 3 3 2 2 2 3 5 5 4 4 5 5 5 5 5 5 5 6 5 5 4 5 6 7 7 7 7 8 9 9 8 7 8 10 9 9 10 10 9
5 1 7 6 9 9 7 6 7 4 3 6 2 3 2 6 7 6 2 5 7 9 13 11 10 10 8 8 7 7 9 9 10 10 9 9 9 8 8 8 5 6 6 6 6 5 5 6 6 6 7 6 6 7 6 7 6 4 4 3 3 2 2 3 4 3 5 5 6 6 6 5 5 5 4 5 6 6 5 5 5 6 6 7 7 7 7 8 9 9 9 9 9 9 9 9 9
6 3 5 5 5 3 4 5 7 1 3 9 6 4 5 7 3 4 4 3 7 10 13 12 9 11 7 7 6 7 7 7 6 10 9 9 8 8 7 7 7 5 5 5 5 5 6 5 6 7 8 6 6 7 6 7 7 6 6 6 5 4 4 5 4 5 5 5 6 6 6 6 6 6 6 4 5 5 5 5 5 6 6 7 6 7 6 8 8 9 10 10 10 12 10 10 11
4 6 6 5 6 4 3 3 3 1 9 10 8 6 6 8 4 10 8 7 10 13 5 2 3 2 5 7 10 10 9 10 10 9 9 8 6 7 7 9 7 6 5 6 6 6 5 6 6 8 7 6 6 7 7 7 7 7 6 6 6 6 6 5 6 6 6 6 6 6 6 6 6 6 6 6 5 5 5 5 5 5 6 6 6 5 6 7 8 8 9 9 9 10 9 10 11
10 2 4 4 2 6 5 4 1 6 8 6 13 6 8 12 3 6 8 7 10 10 13 9 5 7 7 7 7 10 11 10 10 11 10 9 8 6 6 8 7 5 6 6 5 5 5 5 6 7 7 7 7 7 7 7 6 7 6 7 7 7 6 6 6 6 6 5 5 6 6 6 6 6 6 6 6 6 6 6 5 5 6 6 6 6 6 6 6 7 7 7 8 9 10 10 11
6 5 6 9 4 3 4 0 6 8 10 6 1 7 3 15 13 5 11 9 8 9 9 7 8 7 6 6 8 8 9 11 11 10 10 8 8 8 7 6 5 5 6 5 6 5 5 5 6 7 7 6 7 7 8 8 8 8 7 7 6 5 6 6 6 5 5 5 5 6 6 6 6 7 7 7 7 7 7 7 7 7 6 6 6 6 7 7 7 7 7 8 8 9 9 10 10
9 10 10 8 3 2 5 4 2 4 6 4 5 7 8 2 8 15 12 14 14 13 5 7 11 12 10 9 8 8 7 8 9 9 9 8 8 7 7 6 6 5 5 6 5 5 4 5 5 6 6 5 5 7 7 8 8 7 7 7 6 6 6 6 6 5 6 5 5 6 6 6 6 6 6 6 7 7 7 6 6 6 6 6 6 7 7 7 7 8 8 9 10 10 9 10 12
14 7 14 13 10 7 8 7 10 12 13 6 4 5 8 7 9 9 22 24 18 5 5 5 8 9 10 7 7 8 8 6 7 8 9 9 8 7 7 6 6 5 5 5 4 4 4 5 5 6 6 6 7 7 6 8 7 7 7 7 7 6 6 6 5 5 6 6 6 6 6 6 6 6 6 7 7 7 7 6 6 6 6 6 6 7 7 7 7 8 8 9 9 9 10 10 11
5 3 2 3 11 5 12 8 6 6 3 1 3 8 6 7 3 1 4 7 8 3 5 10 7 6 7 9 9 9 8 8 7 8 8 6 7 6 6 6 5 5 5 5 5 4 5 4 4 5 5 5 5 6 6 6 6 5 6 7 7 7 6 5 5 6 6 6 6 6 7 6 6 7 7 7 7 7 7 8 7 7 6 6 6 6 7 7 7 8 8 8 10 8 10 12 11
6 7 9 15 7 7 2 3 1 3 1 6 4 3 6 6 8 2 2 1 3 6 8 9 11 10 9 10 9 8 9 8 8 8 8 7 5 5 5 5 5 4 5 5 4 4 4 4 5 5 5 5 6 5 5 4 5 6 7 7 7 7 7 7 7 8 8 7 6 6 6 7 7 7 8 7 8 8 8 7 8 7 7 7 7 6 7 7 7 8 8 9 10 9 10 12 11
6 6 14 3 5 6 5 7 1 4 9 6 6 10 4 7 9 3 4 6 2 7 11 11 11 13 13 11 10 10 10 9 8 7 7 7 7 6 5 4 5 5 5 5 5 4 4 4 4 6 5 6 5 6 6 6 6 5 5 6 6 6 6 6 6 7 7 7 7 7 7 7 8 8 8 8 8 9 8 8 8 8 7 7 7 7 7 7 7 8 9 9 9 9 10 10 10
12 8 4 9 5 4 2 2 10 2 5 4 6 10 10 13 9 2 6 9 7 6 8 10 12 12 12 10 9 8 8 9 8 8 7 6 6 6 6 5 4 4 4 4 4 5 5 5 4 5 5 4 4 4 4 4 5 4 4 5 5 5 5 5 5 6 6 7 8 8 8 7 8 8 8 9 9 9 9 9 8 8 8 8 7 8 7 8 7 8 8 8 9 8 10 11 10
1 2 1 2 2 7 11 11 2 8 12 3 7 4 8 7 9 11 12 13 12 10 11 15 18 16 13 12 12 12 11 10 9 8 7 7 6 6 6 6 6 5 4 4 5 4 5 4 5 4 4 4 5 6 5 6 5 5 6 5 5 4 4 5 5 6 6 6 6 7 8 9 9 8 7 8 8 9 10 10 9 9 9 8 8 7 7 8 8 8 8 8 8 9 11 12 11
5 2 3 2 2 2 2 0 8 7 4 9 5 7 5 5 6 11 14 12 14 19 17 14 14 11 10 12 13 12 11 10 8 8 7 6 6 5 5 4 5 4 4 5 5 5 4 4 4 4 6 5 6 5 5 5 5 6 6 7 7 7 7 6 6 6 5 6 6 6 6 6 7 7 8 8 8 9 10 10 10 10 9 9 8 8 7 7 7 8 9 9 10 9 11 11 10
12 13 14 12 10 4 5 10 1 3 4 4 5 12 2 4 2 11 13 12 15 14 17 15 12 12 11 10 8 10 10 8 8 7 6 6 5 5 4 4 4 5 5 5 4 5 5 4 4 4 6 5 4 5 5 4 4 4 5 6 6 6 6 6 6 6 6 7 7 7 7 7 7 6 6 8 8 8 8 9 9 10 9 9 9 9 8 7 8 8 9 7 9 10 11 12 11
Wind_Direction
333 335 325 326 317 203 52 10 173 291 104 239 226 195 238 240 254 309 291 344 344 263 217 301 307 285 177 187 133 136 164 137 201 130 213 246 130 146 132 128 133 139 148 148 150 158 161 161 157 157 157 157 155 153 143 139 139 142 142 145 148 147 149 146 146 145 145 144 143 140 138 139 138 138 139 136 133 136 133 130 123 119 114 108 104 101 99 97 99 102 101 101 102 91 85 80 77
328 329 328 333 305 95 198 118 90 306 31 293 247 115 246 283 350 227 304 272 224 250 284 158 300 39 46 104 128 116 43 14 185 179 36 58 122 120 136 135 143 145 148 148 150 156 156 159 155 154 156 157 155 151 145 140 142 144 146 145 147 152 148 149 146 146 148 148 147 144 141 142 142 142 140 137 139 139 135 128 123 118 111 106 101 97 96 97 106 108 104 119 107 97 87 83 78
328 343 343 352 10 55 48 46 254 189 174 230 262 214 308 332 254 289 248 251 269 287 309 303 255 29 27 34 35 44 232 332 138 106 97 125 128 182 144 141 144 144 146 148 149 153 152 158 155 154 154 156 156 153 147 144 144 146 148 149 152 155 152 153 148 151 149 151 150 146 144 146 146 144 138 136 136 138 135 128 122 116 111 104 97 91 87 90 107 113 112 118 110 107 97 85 82
319 6 350 6 329 22 67 16 99 149 207 219 300 266 223 233 256 235 252 266 279 335 323 278 93 262 108 64 135 67 56 326 269 144 133 183 194 143 142 138 137 138 142 147 150 150 151 156 153 153 155 155 155 155 150 149 147 148 150 152 156 159 154 151 150 151 149 153 151 148 150 148 150 144 140 141 140 142 137 127 121 117 112 105 97 89 85 86 102 118 117 123 125 112 104 90 84
10 332 50 38 81 354 54 203 172 128 220 180 179 272 240 235 236 230 258 273 287 346 346 298 54 352 104 113 355 99 232 319 289 137 109 114 124 139 133 134 135 140 146 150 148 148 153 151 150 152 154 153 151 153 153 153 152 150 151 153 156 158 156 152 150 153 150 153 154 151 153 149 148 146 140 141 144 144 138 130 125 121 117 111 101 92 88 89 108 123 121 130 132 118 104 91 83
31 1 346 53 15 195 39 321 257 232 230 181 173 270 247 252 234 202 271 287 268 313 261 330 205 169 23 338 144 60 279 111 218 201 123 164 138 139 135 136 136 143 148 149 149 148 153 152 149 150 150 151 151 150 152 154 155 153 151 153 155 157 155 151 150 151 150 156 159 154 155 155 152 148 139 152 147 143 142 134 130 125 123 118 108 98 94 95 115 126 124 130 131 120 104 94 81
14 16 360 7 353 53 190 206 245 223 254 204 220 260 303 310 287 329 277 351 255 342 73 342 326 80 79 304 2 119 237 241 279 200 144 149 131 135 136 138 139 144 148 149 148 147 153 153 151 150 150 150 152 151 152 153 156 155 154 153 154 156 153 150 153 154 155 159 154 154 162 157 145 137 150 145 145 141 147 138 133 130 126 123 114 105 99 100 112 128 128 131 125 116 105 95 79
33 97 313 86 285 16 316 261 261 173 268 205 286 341 321 315 306 333 307 107 298 54 323 235 303 100 265 312 139 292 347 349 270 111 122 135 133 135 135 139 140 146 147 148 148 147 153 154 154 151 150 150 154 152 154 155 154 156 155 155 156 156 154 154 154 157 155 161 158 160 155 159 142 148 151 141 145 155 148 144 140 134 130 125 119 112 106 105 110 124 134 133 131 116 107 96 77
18 79 257 81 14 335 300 265 275 256 276 297 292 267 286 280 300 299 328 278 323 160 321 333 308 75 245 36 71 286 320 351 50 122 132 136 137 139 138 142 144 147 147 147 147 149 151 156 154 153 152 152 154 156 157 156 153 152 155 157 158 156 155 158 158 158 156 159 162 158 156 158 143 153 150 151 154 151 145 148 141 135 132 132 127 120 120 114 113 124 139 140 136 125 111 97 79
51 42 108 132 92 249 266 266 243 259 245 298 298 309 314 299 293 110 271 356 173 355 275 242 20 114 135 72 350 350 321 322 79 106 131 137 136 136 140 147 146 145 145 145 145 147 151 157 154 155 155 153 152 157 160 155 152 152 157 159 160 160 159 158 157 162 149 165 155 163 161 146 149 151 152 152 160 152 153 150 142 142 140 141 134 132 128 121 116 122 138 143 132 135 124 111 90
56 13 152 120 180 226 230 244 257 283 277 311 306 311 297 291 278 289 269 267 339 314 315 56 51 107 46 12 178 250 314 358 98 130 138 136 137 138 139 142 142 143 146 147 144 144 150 156 158 154 155 153 152 156 161 157 154 156 159 160 160 161 161 161 157 162 153 162 161 159 152 150 140 138 159 162 149 150 154 139 146 150 146 150 141 139 139 129 122 123 132 140 146 158 125 110 103
98 138 98 193 218 209 226 238 254 269 285 291 279 304 300 321 298 282 296 331 344 344 292 17 201 148 56 42 330 314 322 29 25 122 133 141 142 142 135 138 136 138 143 147 143 144 147 154 156 160 152 151 154 159 161 159 159 161 162 161 160 160 161 165 160 158 154 153 164 156 149 142 140 155 164 152 142 136 132 137 148 150 149 152 146 144 147 141 134 127 132 136 148 152 142 136 120
135 137 133 159 201 178 212 260 254 303 298 263 256 307 340 333 284 266 261 251 337 307 311 281 211 88 117 171 252 323 40 330 349 85 127 149 144 133 133 135 139 137 141 146 149 149 148 149 152 155 152 149 157 162 161 161 162 162 161 162 163 160 164 165 166 161 158 156 163 162 154 150 158 165 160 144 140 136 133 137 143 144 150 157 155 153 154 153 148 142 136 139 139 144 151 150 147
158 177 143 223 125 185 185 233 229 232 248 253 261 338 344 320 299 306 137 317 317 251 234 348 120 132 98 63 306 281 237 276 322 21 108 129 125 128 132 133 137 140 144 150 156 154 150 151 150 149 146 152 157 160 161 160 161 160 160 162 161 162 165 167 166 162 160 159 163 160 155 157 164 164 149 146 143 139 137 138 142 147 156 162 162 163 164 165 161 149 148 142 143 142 142 153 166
180 150 147 210 203 188 201 216 201 228 252 296 270 348 336 286 318 324 57 135 235 233 293 34 171 98 225 143 263 215 221 258 18 49 95 102 114 123 128 131 136 140 145 150 154 157 158 151 152 148 150 154 157 158 160 165 160 157 159 161 161 162 162 163 162 161 160 161 160 160 156 160 163 156 151 150 148 145 145 145 147 155 162 165 170 171 173 176 171 162 157 157 154 150 147 146 161
90 146 150 203 227 208 201 213 182 230 249 202 271 252 288 285 287 338 339 307 285 318 6 326 2 275 174 158 210 181 196 176 53 88 101 102 106 116 126 130 135 145 149 149 153 160 160 159 155 154 154 155 160 160 159 162 160 158 160 161 160 159 160 157 157 158 158 159 158 158 157 158 156 154 153 152 153 151 151 151 159 163 166 169 174 178 181 182 178 170 167 167 166 162 157 160 146
77 60 190 215 235 210 179 201 166 232 191 257 81 41 243 274 295 292 283 49 20 331 347 335 339 16 129 237 177 157 167 112 96 95 101 107 118 123 129 131 135 140 152 158 156 161 164 164 165 159 159 158 159 161 158 158 156 155 157 158 155 153 153 152 152 155 155 158 156 157 152 151 152 152 151 153 155 155 155 157 160 161 172 169 177 181 184 187 183 177 177 174 174 170 165 158 154
84 194 206 222 214 217 184 207 198 209 207 214 151 231 194 259 311 318 336 319 42 332 19 323 5 25 337 332 63 74 89 119 124 110 117 123 135 137 145 150 149 152 157 162 166 160 163 169 169 165 160 162 161 162 160 157 155 155 153 155 153 149 149 149 151 158 161 154 153 151 148 146 146 148 150 151 159 159 162 163 163 165 170 176 177 182 188 186 184 179 179 181 177 171 161 152 159
170 197 206 232 190 231 171 212 209 193 219 77 158 179 124 250 60 343 350 300 344 357 331 36 13 351 9 28 21 29 30 95 124 129 141 146 155 156 159 157 162 153 160 164 170 168 167 166 172 170 164 162 163 162 164 159 160 155 154 158 155 154 155 156 158 161 156 156 155 151 148 144 146 151 156 162 163 166 169 171 173 174 172 181 184 185 187 188 185 182 183 181 173 163 152 159 161
249 145 223 232 39 327 218 195 212 211 120 205 164 206 170 251 316 49 245 294 302 280 334 360 26 333 325 336 0 360 16 17 88 136 149 156 160 160 165 169 170 171 165 172 169 179 171 170 171 170 168 162 160 158 158 159 166 159 158 159 157 157 156 161 165 158 159 160 160 154 152 153 152 159 174 170 161 165 179 181 181 183 183 184 187 188 191 190 187 185 183 174 163 159 163 170 162
223 200 219 228 227 300 275 228 213 208 210 213 195 142 226 268 263 271 154 276 268 258 118 110 51 8 273 299 315 353 4 8 17 110 161 161 168 172 169 174 175 177 173 162 168 174 174 174 171 174 171 165 159 156 156 157 166 167 166 161 161 161 160 168 171 159 162 164 163 162 162 161 165 170 178 177 177 175 176 183 188 191 191 194 187 183 193 200 185 186 181 161 162 171 170 184 177
7 235 252 226 101 227 243 241 227 210 209 217 199 186 216 38 252 226 182 209 224 237 152 95 42 37 129 261 291 335 192 261 277 257 211 197 190 186 182 170 149 166 157 163 177 174 178 177 175 174 174 175 169 166 168 166 167 173 175 173 164 174 171 174 174 171 169 170 169 171 169 172 177 182 184 187 187 182 182 187 192 190 192 195 190 177 190 193 189 184 176 176 186 183 187 188 192
243 257 249 264 249 235 293 212 217 212 222 215 218 216 119 188 243 232 213 216 208 267 141 83 34 17 119 164 337 293 255 229 230 240 226 228 235 227 206 187 170 175 181 184 177 182 180 176 176 170 176 178 181 172 168 172 178 178 177 179 176 182 186 184 183 175 181 182 179 180 177 182 184 188 193 196 197 187 194 194 195 192 195 192 188 184 192 192 188 191 190 193 192 193 194 191 201
230 247 141 230 244 249 255 274 280 238 218 225 224 125 202 186 239 218 249 235 195 250 247 143 51 356 357 162 213 233 240 204 220 220 225 221 210 208 197 198 201 158 168 184 183 183 182 183 178 174 178 179 182 180 176 178 181 179 184 180 183 189 181 192 203 187 166 183 188 185 187 191 190 191 204 205 209 194 208 200 191 194 200 199 186 194 186 189 191 192 197 206 208 213 205 193 195
212 246 245 266 238 239 243 251 259 253 245 244 234 224 226 196 215 154 236 235 218 230 252 153 82 32 346 277 255 245 252 268 241 230 240 256 256 269 266 235 196 169 178 179 184 184 192 186 181 181 181 182 181 177 181 183 183 186 184 185 190 186 192 190 195 198 191 181 187 187 188 195 198 198 204 211 200 210 208 198 194 202 200 201 183 199 189 188 195 193 198 204 206 218 225 220 199
214 230 222 244 243 250 232 248 245 248 250 222 233 234 231 225 223 240 235 219 227 232 256 181 165 115 303 288 279 252 233 259 280 295 256 261 252 240 251 230 196 190 200 176 174 189 189 187 185 187 187 186 184 178 183 181 185 188 191 189 190 188 197 192 187 192 201 197 193 191 190 194 198 200 204 206 200 213 209 204 201 204 204 199 189 197 197 189 194 193 199 204 205 215 222 230 200
207 233 232 237 253 270 281 225 249 238 242 198 219 231 234 223 162 249 220 221 201 222 236 237 166 254 213 261 274 269 244 245 234 247 298 286 288 231 238 276 204 214 195 195 184 179 179 181 193 193 193 191 184 186 183 184 180 189 191 191 190 192 196 193 191 191 196 200 201 197 194 197 198 202 203 202 207 209 207 205 208 202 208 202 195 202 191 199 195 196 197 201 204 205 217 225 211
287 215 246 233 248 253 257 302 260 6 269 196 195 247 252 232 201 232 128 185 185 202 214 234 227 213 242 231 255 281 264 257 280 202 232 252 251 236 244 195 215 205 193 208 198 180 167 181 188 194 194 190 187 191 184 184 184 188 188 189 193 193 186 193 194 194 198 200 199 199 198 199 200 205 204 203 205 206 207 206 206 199 212 201 197 200 197 204 201 205 202 203 207 202 211 217 215
272 192 260 274 304 278 236 222 234 177 269 175 170 290 258 220 232 211 201 181 192 195 205 208 223 227 214 221 239 255 274 273 238 265 240 221 225 218 221 211 190 191 218 203 199 186 185 183 175 185 183 185 188 187 185 188 185 185 185 191 192 184 186 189 193 197 199 200 199 199 200 200 202 204 206 207 207 207 207 205 205 207 207 198 193 200 198 201 206 207 210 197 205 212 219 223 210
41 42 201 296 289 268 236 190 189 177 236 162 146 251 231 229 230 134 210 193 206 200 213 211 216 219 223 216 215 235 247 269 264 233 252 257 240 221 228 232 230 226 222 276 197 199 200 187 183 172 172 178 189 190 184 184 190 186 187 188 186 184 187 187 194 194 198 201 200 201 202 202 204 208 207 213 210 209 206 208 208 210 205 195 195 192 198 196 206 205 208 188 208 205 218 226 210
180 252 51 225 257 250 160 188 168 199 205 175 172 246 253 221 222 186 195 194 184 210 215 213 213 210 215 217 217 226 252 248 253 249 245 247 242 221 211 252 183 171 137 98 179 213 204 202 192 183 178 177 177 188 192 199 193 186 199 205 190 179 185 191 196 195 196 199 199 204 204 206 207 210 212 209 212 213 212 211 212 212 199 192 192 199 196 199 202 209 197 200 206 209 217 222 217
285 9 243 287 200 267 300 218 174 208 239 180 163 248 255 236 258 217 191 197 186 211 211 214 214 212 212 215 216 214 219 236 246 245 243 240 221 199 182 181 183 142 140 148 131 104 157 244 241 215 180 170 176 192 206 212 193 202 190 197 193 202 207 217 200 197 197 195 199 204 204 205 208 211 213 211 215 215 218 217 213 203 198 194 198 197 198 202 204 211 210 200 199 215 211 226 218
302 186 272 225 216 253 356 254 207 216 171 211 188 238 46 249 228 203 200 200 202 209 207 210 213 213 211 215 219 215 215 215 231 243 233 221 210 181 173 157 164 163 159 137 128 109 86 40 33 17 321 276 135 120 139 177 183 182 181 197 198 188 200 214 214 203 198 196 200 203 201 203 206 209 210 211 216 215 217 222 214 199 191 197 200 198 204 209 202 207 214 207 207 210 205 218 219
254 222 245 197 217 210 228 298 292 212 181 232 227 234 230 304 344 330 134 215 207 215 213 211 213 214 210 211 217 216 213 214 205 216 219 205 216 192 167 156 158 165 164 128 98 92 97 78 65 54 28 13 17 106 152 183 177 171 201 204 187 198 205 211 217 211 213 213 204 208 203 202 206 206 208 210 217 220 216 216 213 198 191 198 203 200 209 208 212 205 212 210 208 211 207 211 218
210 208 233 250 245 218 234 182 263 101 224 220 225 235 242 244 297 303 196 148 203 237 236 232 226 223 221 217 218 218 212 217 211 187 194 200 189 196 158 112 74 54 43 51 62 66 72 65 72 64 55 20 358 344 338 1 63 115 159 177 177 209 219 219 194 196 224 223 211 212 209 209 211 211 210 209 215 219 220 217 207 204 195 199 201 207 210 208 212 211 212 213 213 218 216 213 218
200 202 219 234 224 228 226 245 261 234 251 238 236 237 239 230 273 274 281 317 223 226 281 286 260 248 242 217 216 220 216 221 233 188 168 189 188 149 93 70 60 44 24 20 41 31 26 30 20 36 27 7 360 4 4 347 348 351 327 336 313 239 217 215 191 191 195 203 221 212 202 207 208 213 216 215 217 220 218 218 215 199 202 202 208 212 214 209 210 209 218 217 218 226 233 228 214
80 97 208 244 232 259 294 280 249 200 234 242 232 240 245 231 226 244 255 318 321 309 290 284 293 254 224 208 206 203 204 208 189 186 161 132 62 20 77 91 89 64 41 36 43 34 33 22 43 32 360 18 36 17 12 4 330 314 330 315 265 263 268 304 259 209 205 216 215 218 221 208 204 210 215 213 218 220 220 220 216 210 204 207 215 221 216 217 213 210 214 211 218 220 225 213 219
242 261 272 274 238 257 231 230 260 233 179 286 276 241 239 230 240 246 271 302 276 268 271 280 271 258 251 217 190 196 197 162 135 114 81 73 65 56 56 67 74 78 36 52 52 47 41 37 44 26 23 29 38 38 357 27 25 3 302 291 286 275 263 260 268 268 243 224 218 222 217 221 222 213 212 211 213 212 213 214 214 215 206 211 219 223 221 217 213 213 208 224 219 221 227 188 198
238 225 251 268 263 251 278 271 274 277 218 258 277 253 255 240 233 251 244 242 240 254 218 232 248 263 243 249 240 189 160 150 99 88 80 87 81 66 67 65 64 84 82 70 59 56 44 42 35 31 30 35 28 26 38 23 334 344 8 307 327 315 307 305 284 281 296 273 259 231 224 222 223 230 220 209 210 212 213 211 213 213 210 209 216 221 219 218 214 213 209 218 223 219 233 193 186
233 226 230 237 234 197 300 278 314 321 156 275 106 279 271 268 255 250 254 233 234 234 247 254 225 248 233 219 212 206 194 158 125 119 106 93 91 86 75 64 60 60 58 53 46 51 48 45 37 33 32 38 33 24 28 8 291 281 298 275 296 266 291 332 341 341 11 348 284 292 288 271 246 236 228 215 213 213 213 217 217 214 216 210 212 219 219 222 219 217 216 221 222 224 215 223 192
231 223 222 240 230 212 206 246 336 304 317 84 318 319 283 208 255 267 257 250 248 254 250 272 272 221 236 243 244 203 199 170 133 123 118 109 91 81 86 86 75 66 55 52 49 49 52 48 40 44 40 39 37 28 22 9 16 21 1 354 15 360 360 8 2 332 339 346 330 310 272 275 272 265 249 220 210 222 219 218 219 220 219 216 214 219 221 223 222 222 221 222 217 225 232 217 202
243 221 214 222 215 202 266 278 350 0 307 272 171 301 266 258 246 243 262 344 281 261 278 250 246 258 231 224 221 230 206 182 156 145 133 117 109 102 86 83 82 78 66 58 66 63 60 51 46 41 41 36 29 23 25 36 47 47 28 23 5 6 337 345 327 313 328 336 322 318 320 312 294 282 273 264 226 216 225 225 221 219 220 220 218 222 225 224 224 225 224 223 223 221 233 224 219
212 254 204 214 205 196 203 209 129 245 230 280 141 216 269 345 307 253 230 215 251 292 272 263 259 243 241 235 193 183 167 119 92 109 121 113 111 102 92 88 89 87 78 74 66 62 58 54 48 47 43 37 28 26 25 37 47 45 61 69 66 341 302 279 278 314 320 312 319 317 311 323 332 323 305 294 282 252 236 231 226 224 221 218 215 220 224 224 225 223 221 222 225 225 220 232 227
238 245 139 183 189 186 209 191 187 224 249 330 28 161 242 281 282 260 169 199 280 285 271 256 247 233 227 226 212 169 167 150 140 134 123 117 112 112 110 105 93 93 95 71 62 55 53 49 47 43 41 38 30 21 27 32 46 37 44 43 40 25 350 288 315 317 315 310 325 320 318 318 322 328 320 316 308 293 266 253 240 231 227 224 213 218 223 225 227 225 216 222 224 224 222 228 229
221 228 172 193 186 195 200 178 210 218 279 272 287 286 283 261 253 277 147 304 274 259 259 256 243 237 218 219 203 172 158 156 145 138 134 128 122 114 113 105 99 89 78 74 70 63 60 54 53 49 44 37 25 25 30 25 30 29 44 45 31 12 336 315 311 321 333 338 339 334 336 325 324 322 319 312 313 311 299 273 259 247 234 231 220 226 228 228 227 225 220 219 222 226 228 231 233
261 151 79 62 65 69 148 180 197 236 196 247 236 192 232 265 265 237 289 211 259 254 247 250 235 231 199 177 182 156 143 135 130 128 128 123 121 115 111 105 90 84 82 82 72 66 57 56 53 50 43 36 26 29 30 31 27 24 31 21 25 5 359 345 356 354 352 348 344 337 332 333 331 328 327 320 313 309 305 296 279 266 257 246 230 227 228 230 233 233 231 227 223 226 225 227 233
121 98 76 21 42 39 22 66 107 157 236 234 231 211 171 273 216 177 205 218 219 250 269 255 255 190 156 163 153 149 143 137 134 127 123 120 117 114 110 99 100 84 74 75 70 62 61 57 55 55 42 36 31 32 34 33 31 31 28 19 16 11 1 360 0 357 353 356 350 336 336 327 326 320 322 318 314 308 306 298 286 274 265 266 261 242 228 226 229 233 236 236 234 231 230 231 233
139 129 130 71 341 18 28 336 54 210 245 225 233 175 176 229 295 235 217 224 221 215 238 223 189 171 166 154 149 144 140 136 132 127 127 123 112 103 101 98 96 97 85 76 70 65 60 57 55 56 41 33 29 28 32 33 34 34 31 26 20 11 6 5 3 353 349 344 337 332 327 331 331 326 328 326 323 320 313 306 299 291 281 270 260 256 255 240 231 229 234 234 237 234 235 235 235
137 108 111 155 245 52 279 53 247 214 224 235 128 125 301 239 245 220 238 258 272 245 233 202 164 160 154 148 143 141 138 135 134 134 130 126 124 122 112 110 103 95 94 88 80 75 68 61 55 58 44 33 31 28 32 28 30 29 26 23 23 14 11 11 359 357 349 346 340 335 336 334 331 333 331 326 320 320 318 315 312 302 293 278 272 265 258 253 248 241 235 236 238 237 235 237 244
160 168 167 140 188 175 215 237 295 327 306 262 176 205 238 227 250 228 234 245 239 238 216 167 167 159 159 154 145 138 137 136 135 133 130 130 132 126 123 120 112 102 90 85 78 72 69 66 57 60 48 37 35 38 34 30 27 24 20 20 17 13 12 8 1 359 347 343 338 331 329 326 323 316 315 312 306 311 310 302 298 296 290 289 284 277 270 263 254 248 246 245 243 242 239 239 243
194 182 171 190 172 164 211 190 213 205 218 241 182 122 239 154 245 208 208 216 222 214 173 159 158 158 148 142 132 131 130 129 134 131 134 137 136 134 131 126 118 111 100 88 81 70 68 61 61 60 53 38 39 37 34 34 27 20 17 16 15 13 8 4 359 355 348 347 342 335 330 326 322 318 316 310 309 307 303 304 301 297 296 291 289 285 280 273 263 256 251 249 250 246 246 245 246
216 180 53 146 215 148 216 192 196 206 246 284 172 200 210 194 247 45 236 252 242 178 149 136 135 131 133 135 144 144 140 138 137 131 132 135 137 132 125 124 125 118 112 103 90 81 71 75 72 69 68 55 52 46 40 30 21 17 18 19 12 8 4 1 359 360 356 352 343 340 332 330 326 321 318 317 314 309 308 306 303 298 294 288 282 280 279 276 274 268 261 252 251 245 248 247 247
198 147 204 217 207 160 65 9 174 82 46 253 198 309 296 301 307 252 91 145 180 159 151 146 150 149 150 148 152 148 144 142 142 141 142 143 135 132 133 130 124 117 106 104 109 102 94 81 70 65 59 56 52 52 50 36 27 23 13 11 7 7 8 6 357 353 352 350 350 348 344 337 332 333 328 327 322 321 314 310 304 302 299 292 287 280 275 272 270 268 266 263 259 251 246 248 247
87 184 212 71 61 115 169 214 349 151 220 254 187 202 207 187 253 174 129 133 193 157 161 161 153 156 160 162 158 157 151 149 149 145 145 147 148 145 140 136 138 135 131 116 97 98 96 96 91 80 61 53 40 39 33 28 26 26 17 11 5 2 358 357 357 355 351 351 353 353 349 349 346 337 331 325 324 322 321 317 313 310 304 299 293 288 282 277 273 268 265 263 260 259 255 254 248
212 213 152 146 219 247 269 155 233 206 225 252 254 207 217 194 217 114 195 157 182 184 152 150 162 171 165 158 153 149 146 143 148 150 147 146 144 144 141 139 137 138 139 117 109 97 83 79 88 91 91 84 70 47 34 27 32 24 17 8 2 358 358 355 356 356 353 357 354 350 348 340 338 339 335 333 331 327 325 322 319 314 312 307 301 295 291 285 278 275 270 267 262 255 255 257 254
341 16 231 216 103 214 181 200 179 203 238 200 295 198 242 192 204 169 198 191 172 157 169 172 177 176 166 161 159 157 156 155 154 154 155 155 155 151 145 134 135 143 130 118 112 91 84 91 87 96 92 78 60 44 34 24 17 14 7 6 7 4 359 1 360 356 360 0 353 349 344 344 340 334 334 333 331 327 325 324 322 318 315 310 306 301 297 291 287 278 278 273 268 258 256 255 257
230 227 288 243 211 247 104 336 172 192 171 221 221 232 277 244 192 174 190 190 175 177 179 176 176 168 166 162 158 157 155 156 159 159 159 159 159 155 147 141 125 113 119 123 117 113 119 100 94 88 84 63 57 46 40 28 12 12 9 7 358 358 0 2 0 356 359 356 352 348 346 334 329 337 335 335 334 331 328 327 322 320 317 313 309 306 302 296 291 287 283 279 275 267 261 261 257
199 194 210 204 190 196 185 250 83 125 179 211 192 240 247 273 265 190 185 193 179 187 173 172 161 165 162 157 158 155 154 159 163 165 161 161 158 147 137 122 124 126 130 126 128 112 100 96 104 90 71 60 60 38 39 26 23 19 15 3 358 356 360 355 359 354 360 355 352 350 341 338 341 335 339 333 331 328 326 323 321 317 316 313 311 307 305 300 295 293 288 283 281 275 268 265 259